Meteo Giornale » Osservazioni meteo Stati Uniti (USA) » Sturgeon Bay
ore: 05:41 - Osservazioni Meteo Sturgeon Bay
Lat. 44° 51' N Lon. 87° 25' W Alt. 221 metri s.l.m.
22 °C
Nebbia
Temp. 24 Ore
21 °C
29 °C
Nord
0 Km/h
Dew point 22 °C
Umidità 100 %
Visibilità 2 Km
Il sole sorge alle ore 06:12
Il sole tramonta alle ore 19:26
| Data e Ora | Cielo e Fenomeni | T °C | DP °C | Um. % | Pres. hPa | Vis. km | Vento km/h | |
|---|---|---|---|---|---|---|---|---|
| Oggi h: 05:41 | Nebbia | 22 | 22 | 100 | 1013 | 2 | N 0 | |
| Oggi h: 05:27 | Nebbia | 22 | 22 | 100 | 1012 | 2 | N 0 | |
| Oggi h: 05:24 | Foschia | 22 | 22 | 100 | 1012 | 5 | N 0 | |
| Oggi h: 05:15 | Foschia | 22 | 22 | 100 | 1012 | 2 | N 5.5 | |
| Oggi h: 05:07 | Foschia | 22 | 22 | 100 | 1012 | 3 | N 5.5 | |
| Oggi h: 05:05 | Foschia | 22 | 22 | 100 | 1012 | 2 | N 5.5 | |
| Oggi h: 04:57 | Nebbia | 22 | 22 | 100 | 1012 | 2 | N 0 | |
| Oggi h: 04:54 | Foschia | 22 | 22 | 100 | 1012 | 2 | N 0 | |
| Oggi h: 04:48 | Foschia | 22 | 22 | 100 | 1012 | 2 | N 0 | |
| Oggi h: 04:35 | Foschia | 22 | 22 | 100 | 1013 | 5 | N 0 | |
| Oggi h: 04:17 | Foschia | 23 | 22 | 94 | 1013 | 2 | N/NO 7.4 | |
| Oggi h: 03:57 | Foschia | 22 | 22 | 100 | 1012 | 6 | N 0 | |
| Oggi h: 02:57 | Sereno | 22 | 22 | 100 | 1012 | 13 | N 0 | |
| Oggi h: 01:57 | Sereno | 22 | 22 | 100 | 1012 | 11 | N 5.5 | |
| Oggi h: 00:57 | Coperto | 23 | 22 | 94 | 1012 | 10 | N 0 | |
| Ieri h: 23:57 | Poco Nuvoloso | 23 | 22 | 94 | 1012 | 10 | N 0 | |
| Ieri h: 22:57 | Nuvoloso | 23 | 22 | 94 | 1012 | 10 | N 5.5 | |
| Ieri h: 21:57 | Poco Nuvoloso | 24 | 22 | 88 | 1012 | 10 | N 0 | |
| Ieri h: 20:57 | Sereno | 24 | 22 | 88 | 1012 | 10 | N 0 | |
| Ieri h: 19:57 | Sereno | 24 | 22 | 88 | 1011 | 10 | N 0 | |
| Ieri h: 18:57 | Sereno | 26 | 23 | 83 | 1011 | 10 | N 0 | |
| Ieri h: 17:57 | Sereno | 28 | 23 | 74 | 1010 | 10 | N 0 | |
| Ieri h: 16:57 | Sereno | 29 | 23 | 70 | 1010 | 10 | O 13 | |
| Ieri h: 15:57 | Sereno | 29 | 23 | 70 | 1010 | 10 | O 9.3 | |
| Ieri h: 14:57 | Sereno | 28 | 23 | 74 | 1010 | 10 | O/NO 7.4 | |
| Ieri h: 13:57 | Sereno | 28 | 22 | 69 | 1011 | 10 | O/NO 11.1 | |
| Ieri h: 12:57 | Sereno | 28 | 22 | 69 | 1010 | 10 | O/NO 11.1 | |
| Ieri h: 11:57 | Poco Nuvoloso | 27 | 23 | 78 | 1010 | 10 | N 5.5 | |
| Ieri h: 11:31 | Poco Nuvoloso | 26 | 22 | 78 | 1011 | 10 | N 5.5 | |
| Ieri h: 10:57 | Coperto | 26 | 22 | 78 | 1011 | 10 | S 13 | |
| Ieri h: 10:43 | Molto Nuvoloso | 25 | 22 | 83 | 1011 | 10 | S 13 | |
| Ieri h: 09:57 | Coperto | 23 | 22 | 94 | 1011 | 10 | S/SE 16.7 | |
| Ieri h: 09:13 | Molto Nuvoloso | 22 | 21 | 94 | 1011 | 14 | S/SE 25.9 | |
| Ieri h: 08:57 | Sereno | 23 | 22 | 94 | 1012 | 10 | S/SE 18.5 | |
| Ieri h: 07:57 | Foschia | 21 | 21 | 100 | 1012 | 8 | S/SE 14.8 | |
| Ieri h: 07:19 | Foschia | 21 | 21 | 100 | 1012 | 10 | S/SE 16.7 | |
| Ieri h: 06:57 | Foschia | 21 | 21 | 100 | 1012 | 6 | S/SE 14.8 | |
| Ieri h: 06:34 | Foschia | 21 | 21 | 100 | 1012 | 3 | S/SE 14.8 | |
| Ieri h: 06:17 | Foschia | 21 | 21 | 100 | 1012 | 5 | S/SE 16.7 | |
| Ieri h: 05:57 | Foschia | 21 | 21 | 100 | 1012 | 5 | SE 13 | |



